Tracking 19709 objects as of 19-Jun-2019
HD Live streaming from Space Station
objects crossing your sky now

SAUDISAT 3

Track SAUDISAT 3 now!
10-day predictions
SAUDISAT 3 is classified as:


NORAD ID: 31118
Int'l Code: 2007-012B
Perigee: 659.5 km
Apogee: 682.5 km
Inclination: 97.8 °
Period: 98.0 minutes
Semi major axis: 7041 km
RCS: 0.633 m2 (medium)
Launch date: April 17, 2007
Source: Saudi Arabia (SAUD)
Launch site: TYURATAM MISSILE AND SPACE COMPLEX (TTMTR)
aabbcc
Your satellite tracking list
Your tracking list is empty




NASA's NSSDC Master Catalog

Two Line Element Set (TLE):
1 31118U 07012B   19169.98518602 -.00000023  00000-0  40200-5 0  9996
2 31118  97.8137 137.7401 0016347  85.8848 274.4226 14.69134613652453
Source of the keplerian elements: AFSPC